Home   Weather   Germantown   Past weeks

Flag for USA Past Weather in Germantown, Maryland, USA — Yesterday and Last 2 Weeks

Now
28 °F

Light snow. Overcast.


Feels Like: 23 °F
Forecast: 21 / 38 °F
Wind: 5 mph from West

Location: Frederick Municipal Airport

Current Time: Dec 11, 2016 at 6:59:52 am

Latest Report: Dec 11, 2016 at 6:10 am


Visibility: 5 mi

Pressure: 30.58 "Hg

Humidity: 74%

Dew Point: 21 °F

Location of GermantownLocation

Past Weather in Germantown — Graph

°F

Germantown Temperature Yesterday

Maximum temperature yesterday: 34 °F (at 10:55 am)
Minimum temperature yesterday: 21 °F (at 10:10 pm)
Average temperature yesterday: 28 °F

High & Low Weather Summary for the Past Weeks

 TemperatureHumidityPressure
High57 °F (Nov 30, 2:48 pm)100% (Nov 27, 9:15 pm)30.57 "Hg (Nov 27, 9:15 pm)
Low21 °F (Dec 10, 10:10 pm)37% (Dec 8, 2:47 pm)29.56 "Hg (Nov 30, 10:00 pm)
Average39 °F79%30.12 "Hg
* Reported Nov 26 5:10 am — Dec 11 5:50 am, Germantown, Weather by CustomWeather, © 2016

Note: Actual official high and low records may vary slightly from our data, if they occured in-between our weather recording intervals... More about our weather records

Advertising

Germantown Weather History for the Previous 24 Hours

Scroll right to see more
 ConditionsComfort  
Time TempWeatherWind HumidityBarometerVisibility
5:50 am
Sun, Dec 11
28 °FMostly cloudy.6 mph69%30.57 "Hg10 mi
5:30 am28 °FOvercast.7 mph69%30.56 "Hg10 mi
5:10 am28 °FOvercast.6 mph69%30.56 "Hg10 mi
4:50 am28 °FMostly cloudy.No wind69%30.54 "Hg10 mi
4:30 am27 °FMostly cloudy.No wind80%30.53 "Hg10 mi
4:10 am28 °FOvercast.3 mph69%30.54 "Hg10 mi
3:50 am27 °FOvercast.3 mph74%30.54 "Hg10 mi
3:30 am27 °FPassing clouds.3 mph74%30.54 "Hg10 mi
3:05 am27 °FPassing clouds.3 mph74%30.53 "Hg10 mi
2:50 am27 °FPassing clouds.3 mph74%30.53 "Hg10 mi
2:30 am27 °FPassing clouds.3 mph74%30.54 "Hg10 mi
2:10 am27 °FClear.No wind74%30.53 "Hg10 mi
1:50 am27 °FClear.No wind74%30.53 "Hg10 mi
1:10 am27 °FClear.No wind74%30.54 "Hg10 mi
12:50 am27 °FClear.3 mph74%30.53 "Hg10 mi
12:30 am27 °FClear.5 mph74%30.54 "Hg10 mi
12:10 am27 °FClear.5 mph74%30.54 "Hg10 mi
11:50 pm
Sat, Dec 10
25 °FClear.3 mph80%30.55 "Hg10 mi
11:10 pm23 °FClear.No wind80%30.54 "Hg10 mi
10:50 pm21 °FClear.3 mph80%30.55 "Hg10 mi
10:30 pm25 °FClear.3 mph69%30.55 "Hg10 mi
10:10 pm21 °FClear.6 mph80%30.55 "Hg10 mi
9:50 pm25 °FClear.No wind74%30.54 "Hg10 mi
9:10 pm23 °FClear.No wind80%30.55 "Hg10 mi
7:50 pm25 °FClear.No wind63%30.55 "Hg10 mi
6:47 pm28 °FClear.No wind55%30.54 "Hg10 mi
5:47 pm30 °FClear.5 mph47%30.53 "Hg10 mi
4:53 pm30 °FClear.9 mph47%30.51 "Hg10 mi
3:47 pm34 °FSunny.9 mph44%30.49 "Hg10 mi
2:50 pm34 °FSunny.13 mph41%30.46 "Hg10 mi
1:47 pm34 °FSunny.15 mph41%30.46 "Hg10 mi
12:50 pm32 °FSunny.16 mph51%30.47 "Hg10 mi
11:50 am34 °FBroken clouds.16 mph48%30.49 "Hg10 mi
10:55 am34 °FSunny.12 mph51%30.51 "Hg10 mi
9:47 am32 °FSunny.13 mph55%30.53 "Hg10 mi
8:47 am30 °FSunny.6 mph64%30.52 "Hg10 mi
7:47 am28 °FSunny.3 mph69%30.51 "Hg10 mi
6:55 am28 °FOvercast.3 mph69%30.51 "Hg10 mi
6:30 am28 °FOvercast.3 mph74%30.51 "Hg10 mi
6:10 am28 °FPassing clouds.6 mph69%30.50 "Hg10 mi
Weather by CustomWeather, © 2016

See weather overviewHow to use our weather pages